Weather in Shirokiy Karamysh

Russia / Saratov Oblast     51°20′04″N   45°04′13″E
temp.,
°C
wind,
m/s
gust,
m/s
humid.,
%
clouds,
%
prec.,
mm/h
press.,
hPa
HPBL,
m
7 march, sun
sun701:00−8wnw339794 0.3 101483
04:00−11wnw499697 0.4 1015220
07:00−13wnw4896100 0.0 1016165
10:00−11w479373 0.1 1017262
13:00−7wsw6108920 0.0 1016618
16:00−4sw6118157 0.0 10141059
19:00−4sw61482100 0.0 1011579
22:00−4sw81778100 0.0 1008865
8 march, mon
mon801:00−4sw91878100 0.0 1006936
04:00−3wsw101793100 0.3 1005925
07:00−2wsw91493100 0.3 1005921
10:00−2wsw7129099 0.4 1006633
13:00−1sw8129568 0.6 1006960
16:000wsw8139083 1.1 1006974
19:00−2wsw61388100 0.2 1005554
22:00−4w3791100 1.3 1007171
9 march, tue
tue901:00−8w339170 0.0 100843
04:00−9nw229185 0.0 100921
07:00−12nw2292100 0.0 101020
10:00−10nw238867 0.0 1011174
13:00−7wnw348773 0.0 1013410
16:00−7wnw458870 0.0 1014511
19:00−11wnw34951 0.0 101432
22:00−13nw339636 0.0 101652
10 march, wed
wed1001:00−15wnw339661 0.0 101741
04:00−17wnw349662 0.1 101875
07:00−19wnw369765 0.0 1019109
10:00−17nw579466 0.0 1021332
13:00−15nw578991 0.0 1023536
16:00−15nw588796 0.0 1023621
19:00−18nw489390 0.0 1024180
22:00−22nw369645 0.0 1027105
11 march, thu
thu1101:00−23nw23970 0.0 102820
04:00−25nw23970 0.0 102920
07:00−26nnw23970 0.0 103020
10:00−22nnw23890 0.0 1031191
13:00−17wnw34770 0.0 1032375
16:00−15wnw45820 0.0 1032349
19:00−19wnw23900 0.0 103220
22:00−21wnw22890 0.0 103320